Orbital Elements at Epoch 2459200.5 (2020-Dec-17.0) TDB
Reference: JPL 33 (heliocentric ecliptic J2000)
Element | Value | Uncertainty (1-sigma) | Units |
e | .1311450237935862 | 1.5082e-08 | |
a | 2.384014410673823 | 7.4874e-09 | au |
q | 2.071362784061752 | 3.5208e-08 | au |
i | 6.396062357290112 | 3.22e-07 | deg |
node | 35.04116837833586 | 5.6984e-06 | deg |
peri | 346.1122050307131 | 8.467e-06 | deg |
M | 218.7169782702908 | 7.3764e-06 | deg |
tp | 2459728.153976506856 (2022-May-28.65397651) | 2.8689e-05 | TDB |
period | 1344.502893673062 3.68 | 6.334e-06 1.734e-08 | d yr |
n | .267756954406035 | 1.2614e-09 | deg/d |
Q | 2.696666037285893 | 8.4694e-09 | au |
|
| | Orbit Determination Parameters
Additional Information
|